Regional Weather Roundup
Issued by NWS

Home | Current Version | Previous Version | Graphics & Text | Print | Product List | Glossary Off
Versions: 1 2 3 4 5 6 7 8 9 10 11 12 13 14 15 16 17 18 19 20 21 22 23 24 25 26 27 28 29 30 31 32 33 34 35 36 37 38 39 40 41 42 43 44 45 46 47 48 49 50

000
ASUS43 KDMX 232003
RWRIA

WEATHER ROUNDUP FOR IOWA
NATIONAL WEATHER SERVICE DES MOINES IA
300 PM CDT TUE AUG 23 2016

NOTE: "FAIR" INDICATES FEW OR NO CLOUDS BELOW 12,000 FEET WITH NO
SIGNIFICANT WEATHER AND/OR OBSTRUCTIONS TO VISIBILITY.

* - THESE STATIONS ARE NOT NWS STATIONS...THUS NOT UNDER NWS
QUALITY CONTROL.  THEY ALSO DO NOT REPORT WEATHER SUCH
AS PRECIPITATION OR FOG.

IAZ001>003-012>014-020>022-031>034-043>046-232100-
   NORTHWEST IOWA

CITY           SKY/WX    TMP DP  RH WIND       PRES   REMARKS
CARROLL *      CLOUDY    75  70  83 S14G24    29.92F
CHEROKEE *     TSTM      65  65 100 S5        29.88F
DENISON *      PTSUNNY   73  72  94 SE16G25   29.87F
LE MARS *      CLOUDY    66  64  94 S8        29.86S
ORANGE CITY *  LGT RAIN  66  64  94 SE8       29.87S
SHELDON *      RAIN      64  64 100 SE17G28   29.85S VSB 1/4
SIOUX CITY     CLOUDY    73  69  87 SE8       29.83F
SPENCER        TSTM      66  63  90 S13G25    29.91R FOG
STORM LAKE *   CLOUDY    73  68  83 W20G29    29.96R
$$

IAZ055>058-069>071-079>083-090>094-232100-
   SOUTHWEST IOWA

CITY           SKY/WX    TMP DP  RH WIND       PRES   REMARKS
ATLANTIC *     CLOUDY    77  72  83 SE13G21   29.92F
AUDUBON *      CLOUDY    73  70  88 SE13G21   29.94F HAZE
CLARINDA *       N/A     81  73  78 MISG      29.95F HX  85
COUNCIL BLFS * CLOUDY    79  73  83 S18G25    29.88F HX  82
CRESTON *        N/A     75  72  88 S14G26    29.98S
HARLAN  *      CLOUDY    75  72  88 SE12G18   29.94F FOG
LAMONI         CLOUDY    75  71  87 S12G24    30.00F
RED OAK *      CLOUDY    79  73  83 S10G20    29.92F HX  82
SHENANDOAH *   PTSUNNY   81  28  15 SE18      29.91S
$$

IAZ047>049-059>061-072>074-084-232100-
   CENTRAL IOWA

CITY           SKY/WX    TMP DP  RH WIND       PRES   REMARKS
AMES           CLOUDY    79  71  76 S15G26    29.96F HX  82
ANKENY *         N/A    N/A N/A N/A MISG        N/A
BOONE *        CLOUDY    81  70  69 S14G22    29.96S HX  84
CHARITON *       N/A     77  72  83 MISG      30.00S
DES MOINES     CLOUDY    80  70  71 S16G24    29.97F HX  83
GRINNELL*      CLOUDY    81  67  63 SE18      30.01F HX  83
KNOXVILLE *    CLOUDY    79  70  73 S15G24    29.98F HX  81
MARSHALLTOWN   MOSUNNY   81  68  64 S14       29.99F HX  84
NEWTON *       CLOUDY    81  70  69 S15G22    29.98F HX  84
PERRY *        CLOUDY    77  73  87 SE14G20   29.96S
$$

IAZ004>006-015-016-023>025-035-036-232100-
   NORTH CENTRAL IOWA

CITY           SKY/WX    TMP DP  RH WIND       PRES   REMARKS
ALGONA *       CLOUDY    79  70  73 SE16G25   29.90F HX  81
ESTHERVILLE    CLOUDY    75  71  87 S13       29.88F
FORT DODGE *   CLOUDY    81  66  61 SE15G25   29.93F HX  83
MASON CITY     CLOUDY    79  63  57 S16G25    29.98S HX  80
FOREST CITY *    N/A     77  64  65 SE18G24   29.95F
WEBSTER CITY * PTSUNNY   81  70  69 SE18G28   29.93F HX  84
IOWA FALLS *     N/A     78  67  67 SE14      30.00S HX  80
$$

IAZ007>011-017>019-026>030-037>042-050>054-066-232100-
   NORTHEAST IOWA

CITY           SKY/WX    TMP DP  RH WIND       PRES   REMARKS
CEDAR RAPIDS   MOSUNNY   81  70  69 S17G24    30.04F HX  84
CHARLES CITY * CLOUDY    79  66  65 S15G25    30.00F HX  81
CLINTON *      MOSUNNY   80  66  62 S14       30.10  HX  82
DECORAH *      MOSUNNY   79  64  61 S14G23    30.02F HX  81
DUBUQUE        PTSUNNY   77  63  61 S17G24    30.08F
MONTICELLO *   PTSUNNY   81  68  65 S13G21    30.06F HX  83
OELWEIN *      MOSUNNY   77  64  65 S17G24    30.04F
WATERLOO       CLOUDY    81  64  56 S18G25    29.99F HX  82
$$

IAZ064-065-067-068-078-232100-
   EAST CENTRAL IOWA

CITY           SKY/WX    TMP DP  RH WIND       PRES   REMARKS
DAVENPORT      PTSUNNY   79  65  62 S14G23    30.10F HX  81
IOWA CITY      PTSUNNY   80  67  64 S15G22    30.07F HX  82
MT. PLEASANT * PTSUNNY   82  70  66 SE15      30.07F HX  85
MUSCATINE *    CLOUDY    81  66  61 S15G23    30.07F HX  83
QUAD CITIES    PTSUNNY   80  66  62 S14       30.09F HX  82
$$

IAZ062-063-075>077-085>089-095>099-232100-
   SOUTHEAST IOWA

CITY           SKY/WX    TMP DP  RH WIND       PRES   REMARKS
BURLINGTON     PTSUNNY   80  69  69 S18       30.08F HX  83
FAIRFIELD *    MOSUNNY   82  70  65 S14G21    30.05S HX  86
FORT MADISON * CLOUDY    75  70  83 SE8       30.09F
KEOKUK *       PTSUNNY   79  70  73 SE12G18   30.07F HX  81
OSKALOOSA *    PTSUNNY   78  70  75 S15       30.02F HX  81
CENTERVILLE *  CLOUDY    77  72  83 SE7G18    30.04F
OTTUMWA        CLOUDY    80  69  69 S15G23    30.02F HX  83
WASHINGTON *   CLOUDY    79  70  73 S16       30.06F HX  81
$$

ABBREVIATIONS USED IN REMARKS
   TC - TEMPERATURES IN CELSIUS
  WCI - WIND CHILL INDEX
   HX - HEAT INDEX
  VSB - VISIBILITY
$$





USA.gov is the U.S. government's official web portal to all federal, state and local government web resources and services.